Skip Page Navigation
NASA JPL Caltech
NASA Logo - Jet Propulsion Laboratory + View the NASA Portal
+ Near-Earth Object (NEO) Program
Search JPL
JPL Home Earth Solar System Stars & Galaxies Technology
JPL Solar System Dynamics
BODIES ORBITS EPHEMERIDES TOOLS PHYSICAL DATA DISCOVERY FAQ SITE MAP
JPL Small-Body Database Browser
Search: [ help ]  
9652 (1996 AF2)
Classification: Main-belt Asteroid          SPK-ID: 2009652
Ephemeris | Orbit Diagram | Orbital Elements | Physical Parameters | Discovery Circumstances ]

[ show orbit diagram ]
Orbital Elements at Epoch 2456400.5 (2013-Apr-18.0) TDB
Reference: MPO244270 (heliocentric ecliptic J2000)
 Element Value Uncertainty (1-sigma)   Units 
e 0.1683867 n/a  
a 2.4160807 n/a AU
q 2.0092448 n/a AU
i 5.96769 n/a deg
node 319.03481 n/a deg
peri 243.84733 n/a deg
M 144.68752 n/a deg
tp 2455849.1921713
(2011-Oct-14.69217130)
n/a JED
period 1371.7203690
3.76
n/a
n/a
d
yr
n 0.26244416 n/a deg/d
Q 2.8229166 n/a AU
  Orbit Determination Parameters
   # obs. used (total)      906  
   first obs. used      1986-??-??  
   last obs. used      2012-11-06  
   # oppositions      15  
   planetary ephem.      DE403  
   condition code      0  
   fit RMS      0.54  
   data source      MPC:mpn  
   producer      MPCLINUX  

Additional Information
 T_jup = 3.490 

Ephemeris | Orbit Diagram | Orbital Elements | Physical Parameters | Discovery Circumstances ]

Physical Parameter Table
Parameter Symbol Value Units Sigma Reference Notes
absolute magnitude H 13.0 mag n/a PDS3 (MPC 32901)  

9652 (1996 AF2)          Discovered 1996-Jan-12 by Ueda, S., Kaneda, H. at Kushiro (399)
Reference: 19981110/Numbers.arcLast Updated: 2004-04-19

Alternate Designations
 1996 AF2 = 1986 OV = 1990 RV4 
Ephemeris | Orbit Diagram | Orbital Elements | Physical Parameters | Discovery Circumstances ]
ABOUT SSD CREDITS/AWARDS PRIVACY/COPYRIGHT GLOSSARY LINKS
FirstGov 2013-May-24 09:11 UT
(server date/time)  
NASA Home Page
Site Manager:   Donald K. Yeomans
Webmaster  Alan B. Chamberlin